This is the latest recevied weather packets stored in our database for station/object OK1LPD-5. If no packets are shown the sender has not sent any weather packets the latest 10 day(s).
| Time | Temp. | Humidity | Pressure | Rain* | Wind** | Luminosity | Snow |
|---|---|---|---|---|---|---|---|
| 1777864809 | 9.44° C | 93% | 1009.6 hPa | 0 mm | - | - | - |
| 1777864208 | 9.44° C | 92% | 1009.6 hPa | 0 mm | - | - | - |
| 1777863612 | 10° C | 92% | 1009.5 hPa | 0 mm | - | - | - |
| 1777863009 | 10° C | 91% | 1009.3 hPa | 0 mm | - | - | - |
| 1777862411 | 10° C | 90% | 1009.5 hPa | 0 mm | - | - | - |
| 1777861811 | 9.44° C | 89% | 1009.6 hPa | 0 mm | - | - | - |
| 1777861209 | 10° C | 89% | 1009.5 hPa | 0 mm | - | - | - |
| 1777860611 | 10° C | 88% | 1009.4 hPa | 0 mm | - | - | - |
| 1777860012 | 10° C | 88% | 1009.4 hPa | 0 mm | - | - | - |
| 1777859408 | 10° C | 87% | 1009 hPa | 0 mm | - | - | - |
| 1777858808 | 10° C | 86% | 1008.8 hPa | 0 mm | - | - | - |
| 1777858208 | 10.56° C | 85% | 1008.7 hPa | 0 mm | - | - | - |
| 1777857608 | 10.56° C | 84% | 1008.5 hPa | 0 mm | - | - | - |
| 1777857011 | 11.11° C | 83% | 1008.4 hPa | 0 mm | - | - | - |
| 1777856408 | 11.11° C | 82% | 1008.3 hPa | 0 mm | - | - | - |
| 1777855808 | 11.11° C | 82% | 1008.1 hPa | 0 mm | - | - | - |
| 1777855211 | 11.11° C | 80% | 1008.1 hPa | 0 mm | - | - | - |
| 1777854608 | 11.67° C | 79% | 1008 hPa | 0 mm | - | - | - |
| 1777854008 | 11.67° C | 79% | 1007.8 hPa | 0 mm | - | - | - |
| 1777853410 | 11.67° C | 78% | 1007.9 hPa | 0 mm | - | - | - |
| 1777852809 | 12.22° C | 77% | 1007.8 hPa | 0 mm | - | - | - |
| 1777852208 | 12.22° C | 76% | 1007.8 hPa | 0 mm | - | - | - |
| 1777851610 | 12.22° C | 75% | 1007.6 hPa | 0 mm | - | - | - |
| 1777851008 | 12.78° C | 74% | 1007.7 hPa | 0 mm | - | - | - |
| 1777850408 | 12.78° C | 73% | 1007.7 hPa | 0 mm | - | - | - |
* Rain latest hour (hover to see other rain measurements)
** Current wind speed in m/s (hover to see current wind gust speed)